Voltar ao catálogo

STARLINK-11149

AtivoComunicaçõesVLEO
NORAD 60041·PAYLOAD·🇺🇸 United States

Lançado Jun 8, 2024 de Vandenberg Space Force Base

Loading…

Próximas Passagens (próximas 24 horas)

TLE

AtualizadoSource: CelesTrak SupGP

Época: Sep 15, 2026, 02:00 UTC

1 60041C 24112D   26258.08381944 -.00067216  00000+0 -55341-3 0  2583
2 60041  53.1566  52.7834 0001078  81.7282 340.3211 15.69754932    18

Acompanhe STARLINK-11149 em tempo real com AllMySat

Download on the App Store